www.pogodaiklimat.ru

Погода и климат >> Архив погоды >> Россия >> Чукотка >> Уэлен


ПОГОДА в Уэлене

АРХИВ ПОГОДЫ в Уэлене

Время (UTC), дата Ветер
(напр.,м/с)
 
Видим.   Явления Облачность Т
(С)
Тd
(С)
f
(%)
Тe
(С)
Тes
(С)
Комфортность P
(гПа)
Po
(гПа)
Тmin
(С)
Tmax
(С)
R
(мм)
R24
(мм)
S
(см)
03 13.07 -10
{11}
20 км н/о +8.4 +6.8 90 +3 +4 1019.9 1019.0
06 13.07 Ю 10-11
{12}
18 км 4/1 200 м
[St Ci fib]
+6.7 +5.6 93 +1 +1 1019.2 1018.3 +9.0
09 13.07 Ю 8
{11}
20 км 3/1 300 м
[St Ci fib]
+5.1 +3.9 92 -1 -1 1019.6 1018.7
12 13.07 Ю 6
{10}
20 км 9/9 300 м
[St]
+5.0 +4.1 94 -0 -0 1019.1 1018.2
15 13.07 Ю 4
{8}
20 км 9/9 600 м
[Sc]
+6.8 +5.5 91 +3 +3 1018.0 1017.1
18 13.07 штиль 0
{6}
50 км 9/9 600 м
[Sc]
+7.0 +5.1 88 +6 +7 1017.1 1016.2 +4.8
21 13.07 В 2
{4}
50 км 6/4 600 м
[Sc Ci fib]
+11.0 +6.8 75 +10 +15 1016.0 1015.1
00 14.07 В 5
{7}
50 км 10/6 600 м
[Sc Ci fib]
+11.6 +7.0 73 +9 +11 1014.4 1013.5
03 14.07 В 5
{8}
50 км 9/8 600 м
[Sc Ci fib]
+11.6 +6.2 69 +9 +10 1012.5 1011.6
06 14.07 В 4
{8}
50 км 9/6 600 м
[Sc Ac trans Ci fib]
+10.5 +6.7 77 +8 +8 1011.5 1010.6 +12.8
09 14.07 Ю 2
{6}
50 км 9/9 600 м
[Sc]
+11.5 +8.0 79 +10 +10 1011.1 1010.2
12 14.07 штиль 0
{3}
50 км 4/3 600 м
[Sc Ci fib]
+9.4 +8.0 91 +9 +9 1010.0 1009.1
15 14.07 штиль 0
{3}
50 км 8/8 600 м
[Sc]
+9.6 +6.8 83 +9 +9 1009.8 1008.9
18 14.07 ЮВ 1
{3}
50 км 6/4 600 м
[Sc Ci fib]
+10.1 +6.7 79 +10 +12 1009.8 1008.9 +8.5
21 14.07 СВ 2
{3}
50 км 8/3 600 м
[Sc Ci fib]
+9.2 +6.2 81 +8 +13 1009.4 1008.9
00 15.07 Ю 9-10
{11}
50 км 9/8 600 м
[Sc Ci fib]
+13.3 +6.8 65 +10 +11 1008.7 1007.8
03 15.07 Ю 10-11
{12}
50 км 10/9 600 м
[Sc Ci fib]
+13.1 +6.2 63 +10 +10 1008.2 1007.3
06 15.07 Ю 9-10
{13}
50 км 10/8 600 м
[Sc Ci fib]
+12.4 +5.6 63 +9 +9 1008.0 1007.1 +13.5
09 15.07 Ю 7
{11}
50 км 9/9 600 м
[Sc]
+11.5 +5.8 68 +8 +8 1007.6 1006.7
12 15.07 Ю 6
{8}
50 км 9/9 600 м
[Sc]
+10.6 +7.3 80 +7 +7 1006.7 1005.8
15 15.07 Ю 5
{7}
50 км 9/9 600 м
[Sc]
+11.0 +7.7 80 +8 +8 1006.0 1005.1
18 15.07 СВ 2
{7}
20 км 9/9 300 м
[St]
+7.4 +5.8 90 +5 +6 1007.3 1006.4 +7.1
21 15.07 С 7
{9}
50 км 10/10 200 м
[St]
+5.3 +3.9 91 -0 -0 1008.6 1007.7
00 16.07 С 5
{8}
50 км 9/9 200 м
[St]
+5.7 +3.8 88 +1 +2 1010.5 1009.6
03 16.07 СЗ 3
{7}
20 км 10/10 200 м
[St]
+4.9 +3.0 87 +1 +1 1011.2 1010.3
06 16.07 штиль 0
{7}
50 км 8/8 300 м
[St]
+5.1 +3.2 88 +4 +4 1012.2 1011.3 +7.4
09 16.07 С 2
{6}
18 км 10/10 200 м
[St]
+2.8 +1.2 89 -0 -0 1013.2 1012.3
12 16.07 штиль 0
{6}
600 м туман ?/? +1.8 +1.8 100 0 0 1014.0 1013.1
15 16.07 СЗ 2
{4}
18 км {туман} 10/9 100 м
[St Ci fib]
+1.6 +0.5 92 -2 -2 1014.1 1013.2
18 16.07 штиль 0
{4}
50 км {туман} 10/10 300 м
[St]
+3.0 +1.7 91 +2 +2 1014.4 1013.5 +1.4
21 16.07 В 3
{4}
19 км слабый ливневой дождь 9/9 300 м
[Cb cap]
+2.6 +1.6 93 -2 -1 1014.3 1013.4
00 17.07 Ю 9-10
{11}
20 км в посл. час ливневой дождь 10/10 300 м
[Cu Sc]
+7.9 +5.0 82 +3 +3 1014.2 1013.3
03 17.07 Ю 9-10
{12}
19 км слабый ливневой дождь 10/10 300 м
[Cb cap]
+8.0 +6.2 88 +3 +3 1013.8 1012.9
06 17.07 Ю 8
{11}
19 км слабый ливневой дождь 10/10 300 м
[Cb cap]
+7.8 +5.8 87 +3 +3 1013.4 1012.5 +8.0 0.3
09 17.07 Ю 10-11
{13}
19 км {ливн. осадки} 9/9 300 м
[St]
+7.0 +5.6 91 +1 +1 1013.3 1012.4
12 17.07 Ю 11-12
{14}
18 км слабый ливневой дождь 10/10 300 м
[Cb cap]
+6.6 +5.9 95 0 0 1012.4 1011.5
15 17.07 Ю 12-13
{15}
18 км слабый ливневой дождь 10/10 300 м
[Cb cap]
+9.1 +8.5 96 +4 +4 1011.5 1010.6
18 17.07 Ю 13-14
{18}
18 км {ливн. осадки} 10/10 200 м
[Cu Sc]
+7.8 +6.7 93 +2 +2 1011.3 1010.4 +6.6 0.5
21 17.07 Ю 18-21
{23}
16 км 9/9 300 м
[St]
+7.8 +6.7 93 +1 +1 1009.5 1008.6
00 18.07 Ю 20-23
{26}
18 км 10/8 300 м
[St Ci fib]
+8.0 +6.5 90 +1 +1 1007.4 1006.5
03 18.07 Ю 22-24
{28}
18 км 9/9 300 м
[St]
+7.4 +6.2 92 -0 -0 1006.3 1005.4
06 18.07 Ю 18-20
{26}
15 км 10/10 300 м
[St]
+6.8 +5.5 91 -1 -1 1006.3 1005.4 +8.6
09 18.07 Ю 16-18
{23}
18 км {ливн. осадки} 10/10 200 м
[St]
+6.2 +5.1 93 -1 -1 1006.3 1005.4
12 18.07 Ю 13-15
{20}
17 км {ливн. осадки} 9/9 200 м
[St]
+6.0 +4.6 91 -1 -1 1007.3 1006.4
15 18.07 Ю 10-11
{17}
18 км 10/8 200 м
[St Ci fib]
+6.0 +4.4 89 -0 -0 1008.6 1007.7
18 18.07 Ю 6
{13}
20 км 10/10 200 м
[St]
+6.4 +5.0 91 +2 +2 1010.2 1009.3 +5.8 0.0
21 18.07 СЗ 5
{8}
6000 м слабая морось 10/10 100 м
[St]
+4.0 +3.3 95 -1 -1 1013.1 1012.2
00 19.07 СВ 2
{7}
11 км слабый ливневой дождь {морось} 10/10 100 м
[Cb cap]
+3.8 +3.1 95 +1 +1 1014.0 1013.1
03 19.07 СВ 1
{5}
5000 м в посл. час ливневой дождь 10/10 100 м
[St]
+3.8 +3.3 97 +2 +2 1015.5 1014.6
06 19.07 С 3
{4}
8000 м в посл. час туман {ливн. осадки} 10/10 100 м
[St]
+2.9 +2.4 97 -1 -1 1016.3 1015.4 +6.8 0.5
09 19.07 штиль 0
{4}
20 км 10/10 100 м
[St]
+3.0 +2.0 93 +2 +2 1017.6 1016.7
12 19.07 штиль 0
{3}
11 км слабый ливневой дождь 10/10 100 м
[Cb cap]
+2.6 +1.8 94 +1 +1 1018.7 1017.8
15 19.07 С 1
{5}
14 км слабый ливневой дождь 10/10 200 м
[Cb cap]
+2.0 +1.2 94 0 0 1020.3 1019.4
18 19.07 штиль 0
{3}
16 км в посл. час ливневой дождь 10/10 200 м
[Cu Sc]
+3.0 +2.2 94 +2 +2 1021.5 1020.6 +1.9 0.6
21 19.07 В 4
{6}
20 км в посл. час ливневой дождь 10/10 200 м
[Cu Sc]
+3.9 +2.9 93 -1 -1 1022.7 1021.8
00 20.07 В 5
{7}
50 км {ливн. осадки} 10/10 300 м
[Cu Sc]
+5.6 +4.7 94 +1 +1 1023.0 1022.1

 

Местоположение метеостанции Уэлен (Чукотка, Россия): широта 66.16 долгота -169.00 высота над уровнем моря 7 м.

В архиве по умолчанию представлена погода в Уэлене за последнюю неделю. Архивные данные за месяц целиком и за предыдущие месяцы, начиная с января 2011 года, Вы можете получить, выбрав интересующий диапазон дат из раскрывающегося списка и нажав кнопку "Ввод!".


*Определитесь, кто Вы:
робот инопланетянин человек

Внимание! Время в таблицах - всемирное. Для получения местного времени необходимо прибавить поправку, которая в Уэлене равна 12 ч.

Смотрите также архив погоды в соседних городах и на ближайших метеорологических станциях:

Погода на Мысе Ванкарем (Чукотка, Россия) (320 км)
Погода в Эгвекиноте (Чукотка, Россия) (448 км)
Погода на Мысе Шмидта (Чукотка, Россия) (520 км)
Погода на Острове Врангеля (Чукотка, Россия) (648 км)

Пояснения к столбцам:

Ветер - указаны скорость ветра в м/с - средняя за 10 мин, порывы в срок и между сроками (в фигурных скобках) и направление, откуда дует ветер: С - северный, СВ - северо-восточный, В - восточный, ЮВ - юго-восточный, Ю - южный, ЮЗ - юго-западный, З - западный, СЗ - северо-западный.
Видимость - горизонтальная дальность видимости в метрах или километрах. При видимости от 1 до 10 км при отсутствии осадков обычно наблюдается дымка, при ухудшении видимости до 1 км и менее - туман. В сухую погоду видимость может ухудшаться дымом, пылью или мглою.
Явления - указаны атмосферные явления, наблюдавшиеся в срок или в последний час перед сроком; фигурными скобками обозначены явления, наблюдавшиеся между сроками (за 1-3 часа до срока); квадратными скобками обозначены град или гололедные отложения с указанием их диаметра в мм.
Облачность - указаны через наклонную черту общая и нижняя облачность в баллах и высота нижней границы облаков в метрах; квадратными скобками обозначены формы облаков: Ci - перистые, Cs - перисто-слоистые, Cc - перисто-кучевые, Ac - высококучевые, As - высокослоистые, Sc - слоисто-кучевые, Ns - слоисто-дождевые, Cu - кучевые, Cb - кучево-дождевые. Подробнее классификацию облаков см. в Атласе облаков (PDF).
T - Температура воздуха - температура, измеренная на высоте 2 м над землей.
Td - Температура точки росы - температура, при понижении до которой содержащийся в воздухе водяной пар достигнет насыщения.
f - Относительная влажность воздуха - влажноcть воздуха, измеренная на высоте 2 м над землей.
Te - Эффективная температура - температура, которую ощущает одетый по сезону человек в тени. Характеристика душности погоды. При расчете учитывается влияние влажности воздуха и скорости ветра на теплоощущения человека.
Tes - Эффективная температура на солнце - температура, которую ощущает человек, с поправкой на солнечный нагрев. Характеристика знойности погоды. Зависит от высоты солнца над горизонтом, облачности и скорости ветра. Ночью, в пасмурную погоду, а также при ветре 12 м/с и более поправка равна нулю.
P - Атмосферное давление - приведенное к уровню моря атмосферное давление.
Po - Атмосферное давление - измеренное на уровне метеостанции атмосферное давление.
Tmin - Минимальная температура - минимум температуры воздуха на высоте 2 м над землей.
Tmax - Максимальная температура - максимум температуры воздуха на высоте 2 м над землей.
R - Количество осадков - Количество выпавших осадков за период времени, мм. При наведении курсора мыши на число - период времени, за который выпало указанное количество осадков.
R24 - Количество осадков - Количество выпавших осадков за 24 часа, мм.
S - Снежный покров - Высота снежного покрова, см. При наведении курсора мыши на число - состояние снежного покрова и степень покрытия местности в баллах.